Weather History for KJYL - January, 2013

Change the Weather History Date:

Wednesday, January 16, 2013

  Actual Average (KSAV) Record (KSAV)
Temperature  
Mean Temperature 71 °F 49 °F  
Max Temperature 81 °F 60 °F 82 °F (2013)
Min Temperature 61 °F 38 °F 18 °F (1893)
Degree Days  
Heating Degree Days 0 16  
Month to date heating degree days 256  
Since 1 July heating degree days 946  
Cooling Degree Days 6 0  
Month to date cooling degree days 0  
Year to date cooling degree days 0  
Growing Degree Days 21 (Base 50)    
Moisture  
Dew Point 63 °F    
Average Humidity 81    
Maximum Humidity 100    
Minimum Humidity 51    
Precipitation  
Precipitation 0.00 in 0.12 in 2.53 in (1896)
Month to date precipitation 1.80  
Year to date precipitation 1.80  
Sea Level Pressure  
Sea Level Pressure 30.01 in    
Wind  
Wind Speed 5 mph (SW)    
Max Wind Speed 13 mph    
Max Gust Speed 22 mph    
Visibility 10 miles    
Events      
T = Trace of Precipitation, MM = Missing Value Source: NWS Daily Summary

Daily Weather History Graph

Daily Weather History Graph

Search for Another Location

Airport or City:

Trip Planner

Search our weather history database for the weather conditions in past years. The results will help you decide how hot, cold, wet, or windy it might be!

Date:

Astronomy

Jan. 16, 2013 Rise Set
Actual Time 7:28 AM EST 5:44 PM EST
Civil Twilight 7:01 AM EST 6:11 PM EST
Nautical Twilight 6:31 AM EST 6:41 PM EST
Astronomical Twilight 6:02 AM EST 7:10 PM EST
Moon 10:24 AM EST (1/16) 11:12 PM EST (1/16)
Length of Visible Light 11h 09m
Length of Day
10h 16m
Waxing Crescent, 28% of the Moon is Illuminated
Jan 16
Waxing Crescent
Jan 18
First Quarter
Jan 26
Full
Feb 3
Last Quarter
Feb 10
New

Hourly Weather History & Observations

Time (EST) Temp. Heat Index Dew Point Humidity Pressure Visibility Wind Dir Wind Speed Gust Speed Precip Events Conditions
12:15 AM 68.5 °F - 64.4 °F 87% 30.05 in 10.0 mi SSW 5.8 mph - N/A   Overcast
12:35 AM 68.4 °F - 64.2 °F 87% 30.04 in 10.0 mi SSW 5.8 mph - N/A   Overcast
1:15 AM 67.5 °F - 63.9 °F 88% 30.04 in 10.0 mi SSW 6.9 mph - N/A   Scattered Clouds
1:35 AM 67.3 °F - 64.0 °F 89% 30.04 in 10.0 mi SSW 5.8 mph - N/A   Clear
1:55 AM 66.6 °F - 63.9 °F 91% 30.04 in 10.0 mi SW 5.8 mph - N/A   Clear
2:15 AM 66.2 °F - 63.7 °F 92% 30.04 in 10.0 mi SSW 3.5 mph - N/A   Clear
2:35 AM 65.3 °F - 63.7 °F 94% 30.04 in 10.0 mi SSW 4.6 mph - N/A   Clear
2:55 AM 65.3 °F - 63.7 °F 94% 30.03 in 10.0 mi SSW 3.5 mph - N/A   Clear
3:15 AM 64.9 °F - 63.7 °F 96% 30.03 in 10.0 mi SSW 3.5 mph - N/A   Clear
3:35 AM 64.8 °F - 63.7 °F 96% 30.03 in 10.0 mi SSW 3.5 mph - N/A   Clear
3:55 AM 64.6 °F - 63.7 °F 97% 30.02 in 10.0 mi SSW 4.6 mph - N/A   Clear
4:15 AM 64.4 °F - 63.5 °F 97% 30.02 in 10.0 mi SSW 4.6 mph - N/A   Clear
4:35 AM 64.0 °F - 63.1 °F 97% 30.03 in 10.0 mi SW 3.5 mph - N/A   Clear
4:55 AM 63.5 °F - 63.0 °F 98% 30.02 in 10.0 mi Calm Calm - N/A   Clear
5:15 AM 63.1 °F - 63.0 °F 99% 30.02 in 10.0 mi SSW 3.5 mph - N/A   Clear
5:35 AM 62.8 °F - 62.8 °F 100% 30.02 in 7.0 mi South 3.5 mph - N/A   Clear
5:55 AM 62.8 °F - 62.8 °F 100% 30.02 in 7.0 mi Calm Calm - N/A   Clear
6:15 AM 62.8 °F - 62.8 °F 100% 30.02 in 7.0 mi SSW 3.5 mph - N/A   Clear
6:35 AM 62.6 °F - 62.6 °F 100% 30.02 in 7.0 mi Calm Calm - N/A   Clear
6:55 AM 62.6 °F - 62.6 °F 100% 30.03 in 10.0 mi SSW 3.5 mph - N/A   Clear
7:35 AM 61.9 °F - 61.9 °F 100% 30.04 in 7.0 mi Calm Calm - N/A   Clear
7:55 AM 62.2 °F - 62.2 °F 100% 30.04 in 7.0 mi South 3.5 mph - N/A   Clear
8:15 AM 63.1 °F - 63.0 °F 99% 30.05 in 10.0 mi SSW 3.5 mph - N/A   Clear
8:35 AM 63.9 °F - 63.0 °F 97% 30.05 in 10.0 mi SSW 5.8 mph - N/A   Clear
8:55 AM 64.9 °F - 63.5 °F 95% 30.06 in 10.0 mi SSW 8.1 mph - N/A   Clear
9:15 AM 66.4 °F - 63.9 °F 92% 30.06 in 10.0 mi SSW 6.9 mph - N/A   Scattered Clouds
9:35 AM 67.5 °F - 64.6 °F 90% 30.07 in 10.0 mi WSW 6.9 mph - N/A   Overcast
9:55 AM 70.2 °F - 64.8 °F 83% 30.07 in 10.0 mi SW 4.6 mph - N/A   Scattered Clouds
10:15 AM 72.3 °F - 64.6 °F 77% 30.06 in 10.0 mi SW 6.9 mph - N/A   Scattered Clouds
10:35 AM 72.9 °F - 64.6 °F 75% 30.06 in 10.0 mi SW 8.1 mph - N/A   Scattered Clouds
10:55 AM 74.3 °F - 64.8 °F 72% 30.05 in 10.0 mi SW 6.9 mph - N/A   Clear
11:15 AM 75.0 °F - 64.9 °F 71% 30.04 in 10.0 mi SW 6.9 mph 16.1 mph N/A   Clear
11:35 AM 76.3 °F - 64.8 °F 67% 30.03 in 10.0 mi SW 6.9 mph - N/A   Clear
11:55 AM 76.6 °F - 64.0 °F 65% 30.02 in 10.0 mi SW 9.2 mph 19.6 mph N/A   Clear
12:15 PM 77.0 °F - 63.7 °F 63% 30.01 in 10.0 mi SW 12.7 mph 19.6 mph N/A   Clear
12:35 PM 77.7 °F - 63.5 °F 61% 30.01 in 10.0 mi SW 10.4 mph 21.9 mph N/A   Clear
12:55 PM 78.8 °F - 63.5 °F 59% 30.00 in 10.0 mi SW 12.7 mph 18.4 mph N/A   Clear
1:15 PM 79.3 °F - 63.0 °F 57% 29.99 in 10.0 mi WSW 12.7 mph 18.4 mph N/A   Clear
1:35 PM 79.7 °F - 62.2 °F 55% 29.98 in 10.0 mi WSW 6.9 mph 16.1 mph N/A   Clear
1:55 PM 80.6 °F 81.7 °F 62.1 °F 53% 29.98 in 10.0 mi West 9.2 mph 17.3 mph N/A   Clear
2:15 PM 80.6 °F 81.8 °F 62.6 °F 54% 29.97 in 10.0 mi SW 8.1 mph - N/A   Clear
2:35 PM 81.5 °F 82.5 °F 62.2 °F 52% 29.96 in 10.0 mi SW 5.8 mph - N/A   Clear
2:55 PM 81.3 °F 82.3 °F 62.1 °F 52% 29.96 in 10.0 mi WSW 5.8 mph - N/A   Clear
3:15 PM 80.8 °F 81.6 °F 61.2 °F 51% 29.96 in 10.0 mi WSW 6.9 mph - N/A   Clear
3:35 PM 81.0 °F 81.9 °F 61.9 °F 52% 29.96 in 10.0 mi WSW 6.9 mph - N/A   Clear
3:55 PM 81.3 °F 82.3 °F 61.9 °F 52% 29.96 in 10.0 mi SW 4.6 mph - N/A   Clear
4:15 PM 81.1 °F 82.1 °F 62.1 °F 52% 29.96 in 10.0 mi SW 6.9 mph - N/A   Clear
4:35 PM 80.6 °F 81.6 °F 61.7 °F 52% 29.96 in 10.0 mi WSW 3.5 mph - N/A   Clear
4:55 PM 80.1 °F 81.1 °F 61.7 °F 53% 29.96 in 10.0 mi Calm Calm - N/A   Clear
5:35 PM 77.0 °F - 62.2 °F 60% 29.97 in 10.0 mi Calm Calm - N/A   Clear
5:55 PM 73.0 °F - 62.6 °F 70% 29.97 in 10.0 mi Calm Calm - N/A   Clear
6:15 PM 70.7 °F - 62.8 °F 76% 29.98 in 10.0 mi Calm Calm - N/A   Clear
6:35 PM 68.5 °F - 61.9 °F 79% 29.98 in 10.0 mi Calm Calm - N/A   Clear
6:55 PM 67.1 °F - 62.4 °F 85% 29.99 in 10.0 mi Calm Calm - N/A   Clear
7:15 PM 66.2 °F - 61.3 °F 84% 29.99 in 10.0 mi Calm Calm - N/A   Clear
7:35 PM 65.7 °F - 61.7 °F 87% 29.99 in 10.0 mi Calm Calm - N/A   Scattered Clouds
7:55 PM 65.3 °F - 61.9 °F 89% 30.00 in 10.0 mi Calm Calm - N/A   Scattered Clouds
8:15 PM 67.5 °F - 62.8 °F 85% 30.00 in 10.0 mi Calm Calm - N/A   Scattered Clouds
8:35 PM 69.1 °F - 63.9 °F 83% 30.00 in 10.0 mi South 3.5 mph - N/A   Mostly Cloudy
8:55 PM 69.8 °F - 64.4 °F 83% 30.00 in 10.0 mi South 3.5 mph - N/A   Scattered Clouds
9:15 PM 70.0 °F - 64.8 °F 83% 30.00 in 10.0 mi South 3.5 mph - N/A   Scattered Clouds
9:35 PM 69.8 °F - 64.8 °F 84% 30.00 in 10.0 mi South 3.5 mph - N/A   Scattered Clouds
9:55 PM 69.1 °F - 64.6 °F 86% 30.00 in 10.0 mi SSW 3.5 mph - N/A   Scattered Clouds
10:15 PM 68.9 °F - 64.6 °F 86% 29.99 in 10.0 mi South 3.5 mph - N/A   Mostly Cloudy
10:35 PM 68.0 °F - 64.4 °F 88% 29.99 in 10.0 mi South 3.5 mph - N/A   Scattered Clouds
10:55 PM 67.5 °F - 64.4 °F 90% 29.99 in 10.0 mi SSW 3.5 mph - N/A   Clear
11:15 PM 67.1 °F - 63.9 °F 89% 29.99 in 10.0 mi Calm Calm - N/A   Clear
11:35 PM 67.1 °F - 63.7 °F 89% 29.99 in 10.0 mi SSW 3.5 mph - N/A   Clear
11:55 PM 66.6 °F - 63.5 °F 90% 29.99 in 10.0 mi SSW 3.5 mph - N/A   Clear